This is the latest recevied weather packets stored in our database for station/object KE8DDT-7. If no packets are shown the sender has not sent any weather packets the latest 10 day(s).
| Time | Temp. | Humidity | Pressure | Rain* | Wind** | Luminosity | Snow |
|---|---|---|---|---|---|---|---|
| 1777907139 | 19.44° C | 53% | 996 hPa | 0 mm | - | 788 W/m² | - |
| 1777906839 | 18.89° C | 53% | 996.1 hPa | 0 mm | - | 777 W/m² | - |
| 1777906539 | 18.89° C | 53% | 996.2 hPa | 0 mm | - | 765 W/m² | - |
| 1777906239 | 18.33° C | 54% | 996.1 hPa | 0 mm | - | 756 W/m² | - |
| 1777905640 | 17.78° C | 57% | 996.3 hPa | 0 mm | - | 731 W/m² | - |
| 1777905339 | 17.78° C | 57% | 996.3 hPa | 0 mm | - | 722 W/m² | - |
| 1777905039 | 17.78° C | 57% | 996.3 hPa | 0 mm | - | 710 W/m² | - |
| 1777904655 | 17.22° C | 59% | 996.3 hPa | 0 mm | - | 693 W/m² | - |
| 1777904055 | 16.67° C | 61% | 996.4 hPa | 0 mm | - | 666 W/m² | - |
| 1777903455 | 16.11° C | 62% | 996.4 hPa | 0 mm | - | 640 W/m² | - |
| 1777903155 | 16.11° C | 62% | 996.4 hPa | 0 mm | - | 624 W/m² | - |
| 1777902855 | 15.56° C | 63% | 996.5 hPa | 0 mm | - | 610 W/m² | - |
| 1777902555 | 15.56° C | 65% | 996.6 hPa | 0 mm | - | 591 W/m² | - |
| 1777902255 | 15° C | 63% | 996.6 hPa | 0 mm | - | 573 W/m² | - |
| 1777901955 | 15° C | 66% | 996.7 hPa | 0 mm | - | 557 W/m² | - |
| 1777901655 | 14.44° C | 65% | 996.7 hPa | 0 mm | - | 541 W/m² | - |
| 1777901355 | 14.44° C | 67% | 996.8 hPa | 0 mm | - | 524 W/m² | - |
| 1777901055 | 13.89° C | 67% | 996.9 hPa | 0 mm | - | 508 W/m² | - |
| 1777900755 | 13.33° C | 68% | 996.9 hPa | 0 mm | - | 494 W/m² | - |
| 1777900455 | 13.33° C | 68% | 997 hPa | 0 mm | - | 476 W/m² | - |
| 1777900155 | 12.78° C | 68% | 997 hPa | 0 mm | - | 461 W/m² | - |
| 1777899855 | 12.78° C | 69% | 997.1 hPa | 0 mm | - | 443 W/m² | - |
| 1777899554 | 12.22° C | 69% | 997.2 hPa | 0 mm | - | 425 W/m² | - |
| 1777899255 | 12.22° C | 70% | 997.2 hPa | 0 mm | - | 408 W/m² | - |
| 1777898955 | 12.22° C | 71% | 997.3 hPa | 0 mm | - | 388 W/m² | - |
* Rain latest hour (hover to see other rain measurements)
** Current wind speed in m/s (hover to see current wind gust speed)